Helicity
264 292 337 334 351 410 405 404 387 309 332 329 388 456 436 324 290 294 317 275 225 189 197 238 258 211 182 149 156 158 135 154 198 193 158 154 156 132
255 264 289 297 311 378 422 378 382 386 322 331 320 403 445 446 355 374 324 318 233 205 238 279 240 193 157 141 148 146 152 192 213 202 172 174 154 143
162 193 212 228 278 311 351 349 354 363 380 311 267 291 401 471 509 390 346 349 370 267 258 276 226 181 150 140 150 149 177 223 230 200 189 166 147 146
126 129 135 168 188 253 315 355 372 353 313 277 232 273 368 431 489 450 390 327 417 296 247 225 179 125 126 152 157 168 205 234 221 184 172 159 139 110
107 125 118 117 141 181 269 331 397 371 345 266 236 268 422 451 528 446 359 325 331 294 241 207 154 133 164 158 162 174 182 220 177 155 147 134 110 95
105 121 119 113 106 111 145 198 311 330 328 393 261 332 566 560 511 509 441 385 357 338 281 236 204 177 174 167 159 152 186 185 150 150 126 109 89 79
77 82 117 122 109 94 120 124 164 289 301 349 325 428 587 580 527 524 390 467 307 356 337 323 288 242 214 169 158 156 182 147 152 130 100 79 93 57
38 67 93 95 77 60 68 78 108 164 144 249 407 432 514 469 466 561 473 529 425 309 342 301 291 233 223 230 148 170 146 147 136 89 72 71 70 55
44 56 71 98 103 82 33 52 78 129 173 173 171 362 461 477 430 501 407 408 376 320 372 272 260 175 218 199 120 136 116 130 102 84 67 60 57 51
50 41 61 71 81 77 89 56 84 89 173 209 200 228 282 432 444 434 384 486 481 387 259 255 246 225 222 171 123 106 124 105 104 83 70 56 53 49
60 59 63 64 41 68 90 111 70 110 193 252 171 226 332 488 591 598 452 461 407 325 287 254 195 259 220 175 177 122 120 125 107 75 55 57 67 67
55 39 40 55 64 50 76 76 -7 140 260 304 345 332 462 365 400 527 573 618 661 303 266 249 223 236 184 195 194 192 169 98 69 57 66 67 74 140
57 45 39 61 62 72 54 -21 16 104 184 401 471 492 626 761 649 594 515 377 444 284 159 241 233 215 200 217 176 139 139 104 108 102 78 56 67 98
63 65 58 59 73 63 40 9 18 9 293 457 568 589 658 635 556 480 435 329 291 232 212 199 195 214 219 181 147 144 120 87 100 99 130 100 61 47
56 54 59 53 61 58 40 29 15 170 355 418 487 627 669 491 543 408 404 386 313 233 180 179 217 201 176 147 122 107 87 107 101 105 104 88 102 84
29 50 -1 -18 -32 14 45 66 122 279 332 341 458 548 527 371 393 305 348 287 184 152 139 173 161 147 129 118 100 96 121 108 110 78 81 61 83 84
13 -30 -73 -72 -82 -40 -2 104 172 299 267 279 374 487 515 304 450 286 261 161 125 135 141 121 91 100 103 112 85 116 103 107 111 96 93 62 63 75
-25 -60 -72 -78 -58 -52 -55 27 123 241 259 233 259 334 402 293 381 266 207 98 124 129 113 99 118 104 68 65 78 126 136 118 118 96 96 70 49 56
-29 -58 -60 -55 -50 -62 -62 -5 110 191 207 152 235 317 367 232 173 171 113 95 118 88 85 110 99 92 81 90 90 69 135 132 117 105 112 128 85 91
-16 -57 -28 -24 -37 -36 -47 22 130 225 172 220 261 272 195 153 78 91 71 87 81 56 83 66 69 83 104 93 112 160 76 97 104 104 109 112 114 82
4 -26 -9 -21 -19 -35 -38 68 141 160 177 213 182 147 139 108 64 59 61 52 36 50 48 35 52 99 106 120 118 118 141 84 84 111 99 101 98 95
19 -12 10 -1 -22 -33 -27 37 97 161 177 136 83 95 99 76 45 50 41 25 21 29 33 37 46 86 107 113 142 146 137 118 101 50 43 62 109 105
29 25 44 23 -19 -41 -31 14 71 134 131 130 71 67 75 52 37 34 5 4 23 31 34 34 56 84 99 141 92 133 102 86 71 44 80 20 -2 24
Wind_Speed
73 73 73 72 68 68 66 65 71 85 80 60 54 43 44 45 45 41 40 37 35 37 36 33 36 39 42 46 48 52 61 67 70 68 64 63 60 59
77 78 77 76 74 70 69 68 67 71 87 62 58 53 46 47 46 43 39 37 37 37 33 34 36 39 42 44 47 55 61 65 65 64 59 56 55 55
86 85 84 80 78 75 71 70 71 65 79 76 63 59 52 49 49 45 43 41 39 36 33 35 38 38 39 42 48 55 57 62 63 59 56 53 51 52
94 97 98 90 87 83 78 78 74 74 70 77 69 63 57 50 50 47 44 44 44 36 34 34 35 38 41 44 49 52 55 59 58 55 52 49 48 46
95 98 100 98 99 94 87 85 76 73 70 71 68 63 60 55 55 52 49 47 49 41 33 30 34 39 42 46 49 51 54 55 52 49 48 45 42 44
96 94 94 95 96 93 87 83 76 71 68 72 75 70 64 61 58 55 53 49 49 44 37 33 35 38 40 44 47 50 52 49 46 46 43 42 40 41
99 96 94 90 90 89 88 89 83 75 71 72 74 62 64 61 60 57 53 48 48 47 42 40 33 36 41 44 47 49 47 44 42 42 41 38 39 39
102 101 96 93 89 90 88 86 83 82 82 81 69 68 66 61 56 53 49 54 54 46 40 47 34 38 39 41 45 45 43 40 40 40 37 36 37 37
101 102 104 94 92 91 91 92 89 78 77 92 96 72 67 58 53 50 47 45 49 40 35 43 36 39 39 41 42 40 39 39 38 35 34 33 33 36
99 100 100 102 99 97 98 97 94 85 82 76 85 81 71 64 56 45 43 35 36 32 33 41 38 42 38 41 39 38 38 37 32 32 31 32 34 36
99 99 100 103 101 101 102 99 105 104 83 79 64 70 60 55 49 40 38 37 35 33 29 42 38 42 43 45 44 39 34 29 30 31 32 34 35 36
103 103 101 100 102 103 101 103 109 109 85 76 70 69 59 48 43 46 35 34 36 32 29 31 36 38 47 43 37 35 33 31 31 31 32 36 36 40
106 106 103 104 108 109 109 108 107 102 79 59 60 54 43 41 41 39 34 23 23 34 24 25 39 38 42 46 43 37 34 33 33 35 38 37 37 34
104 103 104 112 117 114 108 105 105 102 57 54 46 42 36 36 33 23 18 29 25 16 12 26 40 39 40 43 44 38 36 38 37 37 38 36 34 25
96 102 115 110 107 103 100 101 97 65 53 41 35 35 19 20 15 13 15 14 19 20 18 28 32 33 34 38 41 39 46 42 41 36 37 34 29 24
100 105 105 100 95 92 92 87 71 49 52 38 38 29 11 3 3 8 11 12 16 24 26 27 27 27 35 34 35 40 38 40 39 41 39 26 23 19
103 95 94 92 88 84 79 69 61 52 49 39 32 30 20 5 7 7 9 11 22 21 26 27 25 27 29 33 39 35 37 37 35 31 29 23 18 14
86 86 87 86 83 80 73 67 59 50 44 36 35 30 15 11 4 7 10 14 20 24 28 27 31 39 41 37 21 34 38 37 31 27 29 30 18 8
78 79 79 81 79 73 72 66 59 46 38 39 33 28 23 7 4 9 12 16 21 25 26 30 34 38 45 51 45 27 35 32 26 30 30 32 28 30
73 73 75 74 74 73 69 60 51 41 39 29 16 13 5 8 8 12 15 18 22 25 29 32 35 36 43 49 49 39 32 42 42 43 42 40 37 32
71 70 70 66 69 69 61 53 48 41 28 15 9 3 8 1 8 15 19 21 23 29 31 35 38 36 38 41 41 45 51 43 41 46 46 42 41 42
68 68 67 65 61 61 56 50 46 29 20 15 15 12 1 7 13 20 23 24 28 31 36 39 39 38 38 33 36 52 59 61 52 46 40 29 33 38
66 67 66 63 58 57 52 47 42 33 27 19 12 3 3 12 18 22 26 28 32 37 40 43 44 39 33 41 47 49 53 60 60 61 50 40 28 18
Wind_Direction
292 292 291 291 292 292 293 292 295 302 303 304 301 295 288 284 275 269 274 272 273 278 281 285 292 302 308 312 315 319 321 323 324 325 325 326 325 326
294 293 291 291 291 291 291 291 290 291 297 300 300 299 292 287 281 272 268 271 273 277 277 284 293 300 307 312 315 319 322 324 326 326 326 327 326 327
298 296 293 292 292 292 292 291 290 287 291 297 298 301 294 288 286 282 275 274 276 273 277 286 293 298 305 311 315 320 323 326 326 326 327 326 327 328
304 301 298 297 294 292 291 290 290 289 288 291 295 298 297 293 289 281 279 277 276 271 276 283 291 298 306 312 316 321 324 326 326 326 327 327 327 327
305 304 304 301 298 296 292 291 289 287 287 287 288 294 296 297 292 287 283 279 280 274 273 278 291 301 307 313 318 321 324 325 326 326 327 327 326 328
306 305 304 304 302 300 297 292 289 287 286 288 285 287 293 294 291 283 285 280 276 276 278 283 294 301 309 315 318 321 323 324 325 326 326 326 325 328
309 308 307 306 305 302 298 296 294 289 286 286 284 281 285 293 288 283 281 282 274 275 278 287 295 303 309 315 318 321 323 324 326 327 326 324 327 326
311 311 309 307 308 308 304 298 293 288 288 290 279 282 280 283 290 280 282 281 284 272 273 287 299 302 309 316 319 322 323 325 326 325 325 324 327 326
314 312 310 309 308 307 307 303 298 290 283 286 287 280 278 274 283 280 277 273 282 281 277 287 303 304 312 318 320 322 322 324 325 326 325 325 323 324
315 315 313 310 309 307 306 306 302 296 290 287 287 285 284 277 267 271 277 281 292 285 284 298 309 309 317 319 321 323 325 325 326 327 328 326 324 324
316 316 314 311 310 307 306 303 299 293 293 290 285 289 285 273 273 271 268 269 286 283 289 303 312 319 323 323 324 325 328 332 331 331 330 328 327 326
317 316 314 312 310 308 305 299 284 288 294 292 295 298 294 285 276 260 256 263 281 284 298 301 313 327 331 334 339 341 341 336 334 333 333 330 329 330
317 316 316 312 308 304 297 285 284 296 293 291 292 302 293 288 287 285 271 254 281 293 308 312 319 329 333 336 338 338 340 342 342 338 334 332 334 335
317 317 317 308 297 290 289 283 282 282 295 291 292 291 286 292 291 289 290 289 301 328 329 314 325 331 335 337 338 347 348 343 340 340 341 342 340 342
318 317 311 296 292 291 291 284 279 296 293 291 289 292 290 286 318 295 309 323 325 348 349 332 336 340 341 341 343 345 345 349 343 343 346 347 347 346
316 313 306 300 300 297 293 289 296 299 291 298 295 301 300 273 24 303 319 334 330 336 340 346 349 350 344 344 344 340 343 348 349 344 344 348 346 344
307 311 308 308 304 301 295 293 298 297 296 301 300 293 282 222 326 294 357 344 335 344 348 353 358 356 351 347 344 343 345 343 344 348 351 347 342 337
311 307 306 308 305 301 292 290 293 299 301 303 298 290 276 243 6 1 9 5 356 356 357 1 359 353 352 351 343 347 350 348 352 352 349 342 328 300
311 303 303 307 303 297 292 288 291 301 306 293 296 291 269 242 35 17 15 10 9 9 10 6 1 358 352 350 356 360 350 351 349 346 344 339 333 333
303 301 301 302 304 299 293 278 288 305 295 299 327 299 242 259 67 34 21 27 23 18 12 8 5 4 360 355 355 359 359 348 346 342 340 337 331 326
297 297 298 296 302 302 293 288 290 290 308 350 350 291 236 32 4 28 41 35 33 20 16 10 11 15 12 7 4 359 353 351 344 339 339 337 336 335
295 296 296 296 297 298 294 281 282 321 329 325 264 247 110 33 31 59 49 47 34 28 21 17 20 20 21 21 7 357 350 348 348 345 341 335 333 333
293 295 295 295 296 295 289 276 282 296 287 274 246 173 54 39 43 45 56 49 40 31 25 24 27 31 30 15 7 4 1 357 355 353 359 0 1 360